Location: Caltech
(34.1382°N, 118.1253°W)
Time: 00:19:58
(UTC-07:00)

PANSAT - Visible Passes

Search period start: 19 April 2014 00:00
Search period end: 29 April 2014 00:00
Orbit: 493 x 499 km, 28.5° (Epoch: 18 April)

Date Brightness Start Highest point End Pass type
(mag) Time Alt. Az. Time Alt. Az. Time Alt. Az.
23 Apr 10.1 05:31:45 10° S 05:33:13 12° SSE 05:34:41 10° SE visible
24 Apr 10.0 05:06:58 10° S 05:08:42 13° SSE 05:10:26 10° SE visible
25 Apr 9.8 04:43:18 13° S 04:44:10 13° SSE 04:46:07 10° SE visible
26 Apr 9.9 04:20:04 14° SSE 04:20:04 14° SSE 04:21:45 10° SE visible
27 Apr 10.2 03:56:48 12° SE 03:56:48 12° SE 03:57:21 10° ESE visible
27 Apr 8.8 05:31:21 10° SW 05:34:48 31° S 05:38:15 10° ESE visible
28 Apr 8.7 05:07:58 17° SW 05:10:14 31° S 05:13:42 10° ESE visible
